Theta_e
318 317 317 320 319 319 321 322 322 321 321 322 327 327 330 331 331 331 331 330 330 330 330 330 328 325 325 326 327 326 326 330 332 332 331 331 331 332 331 331 330 330 328 325
317 317 317 319 320 319 319 321 321 320 320 321 322 322 324 330 331 332 331 330 330 330 330 329 327 325 325 325 327 326 327 329 331 332 331 332 331 331 331 330 330 330 330 326
317 318 318 320 320 319 320 320 321 320 321 323 324 323 326 331 330 331 331 330 330 330 330 329 326 325 325 325 326 326 327 329 331 331 331 333 331 330 331 331 330 330 330 325
318 319 321 323 322 320 319 320 319 319 321 322 323 323 323 324 331 331 332 331 330 330 331 329 326 325 325 325 325 325 326 328 331 331 331 331 332 332 331 331 328 326 326 325
319 320 321 322 322 323 321 324 323 323 322 324 323 324 325 325 326 330 332 332 331 331 331 330 326 325 325 325 324 325 325 327 330 330 331 331 331 332 332 328 326 327 327 327
319 320 321 324 321 319 322 328 321 322 323 324 324 323 326 328 330 330 332 333 332 331 332 329 326 325 325 325 324 324 325 325 330 330 330 329 329 332 332 331 328 327 328 328
317 322 325 320 319 319 326 325 320 320 322 323 325 326 325 326 327 331 331 333 333 332 331 329 326 326 325 325 324 323 325 325 328 330 329 330 327 330 332 332 332 328 328 327
315 320 326 317 319 324 319 318 319 320 321 322 323 324 325 326 327 330 331 332 332 332 331 329 327 326 325 325 324 323 325 325 326 330 330 330 329 329 332 332 332 331 328 328
318 319 313 316 315 315 315 317 318 318 319 320 322 325 326 327 329 330 330 331 332 332 332 330 327 325 325 325 324 324 324 325 326 329 329 330 330 327 330 333 331 331 331 331
316 314 312 312 312 313 313 314 315 317 318 319 322 324 327 328 330 331 330 331 332 332 332 330 328 326 325 325 324 324 324 326 326 327 330 328 328 326 326 329 329 327 327 330
315 313 312 312 311 311 312 312 313 316 317 319 322 325 328 328 329 331 330 329 331 331 332 331 329 327 326 325 324 325 325 326 326 325 327 329 327 325 323 324 325 325 325 324
315 312 311 311 310 311 311 312 312 314 316 318 321 324 328 331 331 331 330 328 330 332 332 331 329 327 328 326 324 325 326 326 325 324 325 327 329 328 324 323 320 322 325 325
310 309 310 311 311 311 310 311 312 313 315 317 319 321 326 330 332 332 332 327 329 331 332 331 329 328 328 328 325 325 324 325 325 323 324 324 326 329 328 324 322 319 318 318
308 309 310 312 311 310 311 312 313 314 316 316 317 319 322 327 331 331 330 327 328 329 332 331 329 328 329 329 328 326 326 324 324 323 323 323 323 326 327 327 324 322 318 317
308 308 309 309 310 311 311 312 312 313 316 316 316 317 318 322 329 330 330 327 327 329 330 331 330 329 329 329 328 329 328 325 324 324 323 322 323 323 323 323 324 323 322 318
308 308 309 309 310 311 312 312 312 313 314 316 316 316 317 320 324 330 330 329 327 328 329 330 330 330 329 329 328 329 329 327 324 325 323 322 322 322 322 322 322 322 322 323
310 310 310 310 311 311 311 312 312 313 314 315 315 316 317 318 322 326 331 331 330 328 329 329 329 330 330 329 328 329 329 328 325 325 324 323 321 322 322 321 322 322 322 322
310 310 310 310 310 311 312 312 312 313 314 314 314 316 317 317 320 322 329 332 331 330 329 329 329 329 329 328 329 329 329 329 325 325 325 324 322 321 322 322 322 322 322 322
309 310 311 312 313 312 312 313 313 313 313 314 314 315 317 317 317 320 325 332 333 332 333 331 328 328 329 328 328 329 329 328 326 326 326 325 324 323 322 322 322 322 322 322
309 309 310 311 312 313 314 314 314 313 313 313 314 314 315 318 317 318 321 328 329 331 328 332 327 326 328 328 326 328 328 328 327 326 326 326 326 325 324 323 323 322 322 322
309 311 311 311 310 311 312 312 313 315 314 313 314 313 314 316 318 317 319 322 327 324 323 328 331 329 327 328 326 326 327 327 327 326 326 326 326 326 326 326 325 324 323 323
308 308 309 310 311 311 311 310 311 313 314 314 314 313 313 315 317 317 318 319 321 321 321 328 331 331 331 329 327 325 327 328 328 327 327 326 326 327 326 327 327 327 326 325
308 308 310 309 310 311 309 308 308 308 310 314 315 314 314 315 315 316 318 318 318 319 316 320 323 327 329 329 327 326 327 328 328 327 327 327 327 326 327 327 327 327 327 327
308 308 309 310 310 310 309 308 308 309 308 308 310 312 315 315 316 317 317 318 315 313 314 316 319 324 329 329 330 328 328 328 328 327 326 327 328 328 328 328 328 327 327 327
308 308 308 309 310 310 310 309 308 308 307 306 306 307 310 313 315 316 317 318 318 314 313 313 316 321 325 327 328 331 332 331 330 329 328 328 328 328 326 326 328 329 329 327
307 307 307 307 308 308 309 308 308 306 304 304 304 305 307 308 313 315 316 316 317 316 316 316 317 321 324 327 329 331 330 331 330 329 329 328 326 327 326 326 328 329 329 328
306 306 306 306 306 307 307 308 306 304 304 303 303 304 307 310 311 314 315 316 317 316 316 316 317 320 324 326 332 331 332 331 330 328 328 326 326 326 326 327 328 329 328 327
Wind_Speed
13 8 7 13 25 23 26 19 15 14 18 14 11 8 6 10 19 22 24 27 28 27 25 23 21 20 18 16 15 12 10 8 6 5 7 7 8 9 9 10 10 9 10 10
16 14 8 8 13 26 23 22 21 11 13 13 14 13 7 6 19 23 24 26 27 26 25 24 23 21 19 17 16 13 11 9 7 7 9 8 9 9 9 11 11 11 9 10
17 16 7 10 13 19 21 19 21 19 16 3 2 5 7 1 19 24 25 27 29 29 27 24 24 22 20 19 17 15 12 10 9 9 10 9 10 10 10 10 11 9 9 10
13 11 11 9 1 14 18 20 20 16 15 12 6 9 14 7 13 17 21 25 27 28 26 24 23 23 20 19 18 16 13 12 11 10 11 10 10 11 11 10 10 9 10 11
7 12 8 8 8 3 9 7 7 8 10 11 13 14 16 10 6 17 17 20 24 27 27 26 25 25 23 21 20 18 15 14 13 12 12 11 10 11 10 10 7 7 11 12
5 15 14 9 8 5 4 8 8 6 5 6 8 10 2 13 12 4 16 18 24 27 27 27 27 26 24 23 22 20 18 16 15 13 13 11 10 10 12 11 9 10 12 10
6 7 7 11 10 5 11 4 9 8 9 8 7 10 21 15 10 8 13 18 22 27 30 29 29 28 26 24 23 21 19 17 17 16 14 12 11 10 13 13 10 12 15 14
3 5 6 17 2 4 8 8 10 11 12 14 14 15 18 15 11 7 9 19 24 27 29 29 30 30 27 26 23 22 21 19 18 17 15 13 11 11 13 13 13 13 13 13
4 4 9 4 12 11 10 10 13 15 16 17 18 15 15 15 12 8 7 18 24 26 27 29 31 30 29 26 25 24 23 21 20 19 17 16 14 13 13 13 12 12 11 11
2 5 7 7 11 12 15 14 16 15 17 17 18 18 17 13 10 9 10 18 24 27 30 32 31 31 28 28 27 26 25 24 21 20 20 18 16 15 14 14 14 13 12 13
1 6 7 2 16 19 20 17 17 17 17 18 18 19 16 14 11 9 11 17 25 30 32 33 32 31 29 29 29 27 26 25 24 21 22 19 18 17 15 15 14 13 13 13
3 6 2 12 20 20 17 21 20 20 20 19 17 20 18 15 12 10 11 17 24 29 29 31 33 32 32 31 32 30 28 27 26 24 22 21 20 18 21 18 20 19 17 14
10 18 18 16 15 8 21 22 20 19 17 19 20 20 21 18 13 12 12 17 24 31 33 32 35 35 34 34 33 32 32 29 26 25 23 23 23 21 21 24 20 19 18 20
19 17 17 8 17 20 20 20 19 17 15 17 19 19 21 21 16 10 11 16 20 23 28 31 34 37 35 35 35 33 32 31 28 28 25 24 24 23 21 21 23 24 25 23
12 17 18 19 20 17 17 18 18 17 17 17 19 21 22 23 19 14 8 11 17 21 26 30 33 35 36 35 36 35 33 30 28 26 25 25 24 24 23 22 21 21 21 27
18 20 17 16 16 16 15 15 17 17 17 18 19 21 22 20 18 15 9 4 15 20 23 29 32 35 36 36 36 34 33 33 32 26 26 26 25 24 24 24 23 23 24 22
16 16 15 15 15 16 16 16 16 17 18 18 19 21 21 20 19 17 13 6 5 13 16 22 25 28 32 35 40 35 34 34 35 29 27 26 26 26 25 25 24 24 24 23
16 14 13 14 16 17 17 15 16 17 17 18 18 19 18 18 19 19 17 11 3 5 10 14 18 23 29 31 34 33 34 33 38 35 29 27 28 27 26 26 25 25 24 23
20 15 11 10 13 14 16 16 16 16 16 16 16 16 16 15 16 18 16 11 7 3 1 5 16 24 25 28 31 30 32 33 32 36 33 30 29 27 27 28 27 27 26 25
23 21 17 14 13 15 16 15 16 16 15 14 16 16 16 14 15 15 15 11 7 4 4 4 5 16 19 23 32 28 29 31 30 32 34 33 32 32 30 30 28 28 28 28
24 18 18 19 20 16 18 17 16 16 15 13 14 16 16 17 14 13 12 10 8 11 8 6 1 5 12 18 24 28 28 29 30 29 32 35 31 30 30 29 29 30 29 29
21 22 21 19 18 20 22 20 19 17 14 13 13 14 15 15 14 11 11 11 9 11 10 7 4 7 11 19 19 25 27 28 28 28 28 29 30 26 26 25 27 28 29 30
19 20 18 19 20 21 20 20 22 21 18 14 13 14 16 15 14 13 12 9 10 12 11 9 8 7 11 15 16 22 25 25 26 25 25 25 22 21 18 17 22 25 27 28
18 18 17 17 17 20 25 29 22 21 22 21 18 15 15 17 17 13 13 15 16 12 13 11 8 7 13 9 14 20 22 23 24 25 24 20 21 18 19 27 28 23 25 28
15 16 16 17 18 17 20 23 25 26 27 26 24 19 16 16 19 18 15 14 16 16 13 12 11 11 13 20 23 19 19 21 23 26 35 29 29 31 38 42 40 38 34 26
15 17 16 17 18 17 17 23 25 28 30 32 32 27 23 17 16 20 20 18 17 17 16 12 13 13 13 16 14 18 22 26 26 33 30 36 40 41 44 38 29 31 36 32
11 13 17 18 18 18 16 18 22 27 30 34 33 31 24 18 14 16 20 20 18 17 16 15 12 15 13 16 15 18 18 19 24 24 28 34 35 38 34 31 25 25 27 27
Wind_Direction
245 303 304 262 206 199 205 214 224 192 221 239 171 81 61 161 168 165 163 166 166 168 168 166 170 173 174 173 170 166 163 164 168 148 143 135 123 127 132 140 143 148 151 144
238 241 240 235 240 205 204 206 226 216 228 240 267 281 261 201 183 175 171 171 169 170 170 171 174 175 174 173 170 165 165 164 164 150 151 143 135 133 135 134 139 143 144 147
226 212 209 223 210 215 204 208 218 220 232 190 211 238 266 139 193 183 176 173 173 175 174 174 177 176 175 172 169 167 165 166 158 155 157 145 141 136 137 137 136 139 143 152
232 166 213 90 45 206 211 209 223 230 232 247 258 349 320 293 191 199 184 177 178 176 175 175 177 177 173 171 172 170 168 166 162 155 158 147 143 143 144 143 154 155 166 164
235 196 134 110 38 333 202 142 360 300 289 327 320 311 278 283 253 211 198 189 185 177 174 173 177 177 173 171 174 175 172 169 166 161 160 156 154 149 146 140 143 175 186 178
254 210 208 45 356 329 264 167 21 349 328 321 316 254 189 14 8 261 197 197 185 178 174 174 177 178 175 174 177 179 177 172 169 166 160 158 157 149 151 140 113 127 136 159
261 229 103 8 344 186 211 78 351 343 336 320 287 310 314 322 323 332 206 194 189 184 177 177 176 177 178 178 182 181 179 175 173 170 168 164 157 152 154 149 136 124 129 135
241 255 153 360 17 327 22 357 353 346 340 324 310 305 301 303 296 294 204 193 188 187 183 177 178 179 181 183 180 180 180 179 177 176 171 173 165 156 157 158 149 138 133 137
5 36 333 326 61 50 16 357 352 344 340 328 320 315 308 299 289 263 223 198 190 189 189 182 181 183 183 184 179 180 181 182 181 181 177 180 173 167 160 161 162 156 148 143
279 29 339 47 22 16 2 351 342 342 337 333 328 323 316 306 289 259 227 203 194 190 192 189 186 186 186 182 181 182 183 183 184 184 184 183 181 179 176 170 171 167 164 161
337 45 354 267 342 342 340 344 343 342 341 339 335 331 323 310 290 261 233 207 199 197 196 194 189 186 184 184 182 185 185 185 186 187 188 190 186 188 187 187 182 177 174 171
6 11 296 303 313 323 331 335 336 338 337 342 341 340 332 319 301 272 242 211 204 203 198 196 191 190 185 185 185 185 186 188 190 189 192 194 194 197 192 195 191 185 182 176
303 310 310 300 311 315 329 326 329 330 332 339 344 345 347 334 316 286 247 216 208 203 202 196 193 192 191 187 188 188 188 191 193 190 194 193 197 201 202 204 201 198 196 189
307 306 305 312 316 317 322 322 325 325 329 336 343 349 350 349 339 315 255 224 215 210 205 201 196 196 195 192 191 193 194 195 191 193 197 195 197 201 203 205 205 205 201 197
320 313 299 299 302 307 317 318 320 325 332 336 344 349 352 351 349 338 296 226 213 208 205 204 203 199 197 196 195 193 194 197 194 197 200 199 199 200 202 206 209 209 208 205
310 307 308 302 299 305 316 320 316 318 324 331 338 344 348 349 351 354 348 234 212 211 207 206 205 201 197 196 195 196 198 199 195 199 200 201 202 201 202 204 206 208 210 214
305 308 312 311 310 308 309 314 313 311 315 320 328 336 343 348 354 360 1 343 216 211 210 210 213 205 202 197 197 196 197 201 203 199 201 203 204 206 205 205 207 209 212 214
331 316 290 294 303 307 307 307 305 308 308 313 318 329 337 346 350 353 357 2 7 203 214 213 210 203 205 204 201 196 196 198 203 201 204 205 204 207 209 211 212 213 214 216
8 3 351 322 314 313 310 309 304 299 303 307 309 318 327 331 341 350 355 9 34 90 267 218 210 199 204 206 206 199 201 199 203 200 205 207 206 208 211 213 216 217 218 217
14 19 10 357 349 344 330 320 311 299 295 298 301 305 316 320 328 336 353 1 16 3 351 308 230 209 203 208 212 202 206 206 208 204 204 206 208 208 213 216 216 218 219 221
8 0 2 5 2 357 358 350 334 310 298 293 295 294 301 310 314 320 328 342 345 338 7 346 257 197 206 210 218 204 209 209 209 209 208 208 211 211 213 217 221 221 222 223
5 9 10 3 359 2 4 359 355 340 316 302 293 290 290 299 305 306 301 311 327 329 342 347 325 246 211 216 213 206 208 214 211 208 208 210 208 213 215 222 226 228 229 227
2 6 3 8 7 6 6 5 9 359 350 333 305 296 288 285 289 294 291 288 309 312 326 331 314 265 240 228 214 205 207 213 213 208 201 198 197 200 211 225 238 237 233 234
3 5 359 358 2 9 15 12 4 357 353 346 323 305 292 287 280 272 277 284 285 286 293 304 298 272 232 205 214 211 211 210 206 204 206 202 211 221 252 264 256 249 243 238
358 6 8 2 358 359 4 358 355 360 354 350 344 328 301 275 269 270 264 260 270 277 287 295 284 276 264 236 232 234 229 221 218 211 207 227 237 240 231 251 250 250 249 242
350 356 1 3 2 0 5 9 5 358 357 355 354 347 335 300 267 263 265 261 257 262 276 283 290 289 282 265 238 242 236 235 234 233 235 246 249 247 237 240 252 249 242 239
350 353 355 355 360 4 7 13 17 18 14 6 0 357 344 332 295 264 262 255 252 254 255 260 270 280 277 258 248 244 244 242 240 239 238 237 242 237 247 251 254 254 254 247